Regional Weather Roundup
Issued by NWS

Home | Current Version | Previous Version | Graphics & Text | Print | Product List | Glossary On
Versions: 1 2 3 4 5 6 7 8 9 10 11 12 13 14 15 16 17 18 19 20 21 22 23 24 25 26 27 28 29 30 31 32 33 34 35 36 37 38 39 40 41 42 43 44 45 46 47 48 49 50
103
ASUS43 KLSX 281110
RWRMO

WEATHER SUMMARY FOR MISSOURI
NATIONAL WEATHER SERVICE SPRINGFIELD MO
500 AM CST TUE FEB 28 2017

NOTE: "FAIR" INDICATES FEW OR NO CLOUDS BELOW 12,000 FEET WITH NO
       SIGNIFICANT WEATHER AND/OR OBSTRUCTIONS TO VISIBILITY.
       CURRENT SKY AND/OR WEATHER CONDITIONS ARE NOT AVAILABLE FOR
       CHILLICOTHE AND FARMINGTON.

MOZ001>031-035>038-043-044-053-054-281200-
...NORTHERN AND WESTERN MISSOURI...

CITY           SKY/WX    TMP DP  RH WIND       PRES   REMARKS
KANSAS CTY INT CLOUDY    63  57  81 S13G25    29.69R
KANSAS C DTWN  CLOUDY    64  58  80 SW16G24   29.69S
LEE`S SUMMIT   CLOUDY    62  58  86 S14G23    29.72R
ST JOSEPH      CLOUDY    63  58  83 S20G28    29.64S
CHILLICOTHE      N/A     62  56  80 S12       29.70R
KIRKSVILLE     CLOUDY    59  53  80 S16G24    29.71F

$$
MOZ066>068-077>081-088>096-101>105-281200-
...SOUTHWEST MISSOURI...

CITY           SKY/WX    TMP DP  RH WIND       PRES   REMARKS
SPRINGFIELD    CLOUDY    60  56  86 S15       29.82S
JOPLIN         CLOUDY    63  60  90 S20G26    29.78F
BRANSON        CLOUDY    61  59  94 S7        29.87S

$$
MOZ032>034-039>042-045>050-055>058-069>072-281200-
...CENTRAL MISSOURI...

CITY           SKY/WX    TMP DP  RH WIND       PRES   REMARKS
COLUMBIA       CLOUDY    60  55  83 S20G26    29.77F
JEFFERSON CITY CLOUDY    61  54  77 S9        29.79F
ROLLA          CLOUDY    58  54  86 S14       29.82F
SEDALIA        CLOUDY    63  56  78 S20G26    29.77R
WHITEMAN AFB   MOCLDY    60  60 100 SW15      29.74R
WARRENSBURG    CLOUDY    61  55  82 S16G24    29.73S
OSAGE BEACH    CLOUDY    59  55  87 S8        29.81F

$$
MOZ051-052-059>065-281200-
...EAST CENTRAL MISSOURI...

CITY           SKY/WX    TMP DP  RH WIND       PRES   REMARKS
ST LOUIS INTL  CLOUDY    56  52  86 SE9       29.87R
SPIRIT OF STL  CLOUDY    57  53  86 S7        29.84F
ST CHARLES     CLOUDY    55  53  93 SE9       29.85F

$$
MOZ072>076-082>087-097>100-106>115-281200-
...SOUTH CENTRAL AND SOUTHEAST MISSOURI...

CITY           SKY/WX    TMP DP  RH WIND       PRES   REMARKS
CAPE GIRARDEAU LGT RAIN  55  51  86 S9        29.96F
FARMINGTON     TSTM      54  53  97 S15G21    29.91F
POPLAR BLUFF   CLOUDY    56  55  97 S8        29.96S FOG
WEST PLAINS    CLOUDY    55  54  96 S8        29.90F FOG

$$




USA.gov is the U.S. government's official web portal to all federal, state and local government web resources and services.